Voltar ao catálogo

STARLINK-34157

AtivoComunicaçõesVLEO
NORAD 64084·PAYLOAD·🇺🇸 United States

Lançado May 21, 2025 de Cape Canaveral Space Force Station

Loading…

Próximas Passagens (próximas 24 horas)

TLE

AtualizadoSource: CelesTrak SupGP

Época: Sep 14, 2026, 21:01 UTC

1 64084C 25107W   26257.87618056  .00025332  00000+0  91844-3 0  2570
2 64084  43.0021 212.8918 0001479 259.3587 209.9012 15.27532803    15

Acompanhe STARLINK-34157 em tempo real com AllMySat

Download on the App Store